Погода в Лобезе

Польша     53°38′11″N   15°37′20″E
темп.,
°C
ветер,
м/с
пор.,
м/с
влажн.,
%
обл.,
%
осадки,
мм/ч
давл.,
гПа
погр.,
м
27 февраля, сб
сб2701:00+4зсз6139116 0.0 1029524
04:00+3сз699469 0.0 1029431
07:00+3зсз589483 0.0 1031342
10:00+5сз588165 0.0 1033540
13:00+7ссз576134 0.0 1035679
16:00+6сз46630 0.0 1034534
19:00+2зсз25830 0.0 1035158
22:00+2з369327 0.0 1035155
28 февраля, вс
вс2801:00+2зюз379664 0.0 1035184
04:00+2з499768 0.0 1033243
07:00+1з499854 0.0 1033260
10:00+4зсз579498 0.0 1033454
13:00+6сз588599 0.0 1033549
16:00+6сз478496 0.0 1033499
19:00+3сз239665 0.0 103488
22:00+2сз12961 0.0 103422
1 марта, пн
пн101:00+2з22951 0.0 103524
04:00+1зюз22960 0.0 103424
07:00+1зюз23950 0.0 103529
10:00+6зюз357922 0.0 1034280
13:00+9зюз457011 0.0 1035458
16:00+9з367136 0.0 1033547
19:00+5з348818 0.0 103484
22:00+4зюз33910 0.0 103463
2 марта, вт
вт201:00+3з23930 0.0 103460
04:00+2з33930 0.0 103266
07:00+2зюз23930 0.0 103357
10:00+6з34790 0.0 1033271
13:00+10з34620 0.0 1032534
16:00+11зсз23600 0.0 1031523
19:00+6ссз11790 0.0 103122
22:00+5ю11810 0.0 103122
3 марта, ср
ср301:00+4ю12850 0.0 103022
04:00+3ю228734 0.0 102922
07:00+3ю238922 0.0 102822
10:00+7ююз34750 0.0 1028259
13:00+11зюз35610 0.0 1027669
16:00+11з46660 0.0 10241058
19:00+6зсз23885 0.0 102472
22:00+5зсз259273 0.0 1023166